Weather Roundup
Issued by NWS Chicago, IL

Home | Current Version | Previous Version | Text Only | Print | Product List | Glossary On
Versions: 1 2 3 4 5 6 7 8 9 10 11 12 13 14 15 16 17 18 19 20 21 22 23 24 25 26 27 28 29 30 31 32 33 34 35 36 37 38 39 40 41 42 43 44 45 46 47 48 49 50
000
NZUS59 KLOT 212308
HRRLOT

CHICAGO AREA WEATHER ROUNDUP
NATIONAL WEATHER SERVICE CHICAGO/ROMEOVILLE IL
500 PM CST TUE NOV 21 2017

NOTE: "FAIR" INDICATES FEW OR NO CLOUDS BELOW 12,000 FEET WITH NO
SIGNIFICANT WEATHER AND/OR OBSTRUCTIONS TO VISIBILITY.

* THESE STATIONS ARE NOT UNDER NWS QUALITY CONTROL. THEY ALSO MAY NOT
  REPORT WEATHER SUCH AS PRECIPITATION OR FOG.

ILZ005-006-012>014-019>023-220000-
NORTHEAST ILLINOIS

CITY           SKY/WX    TMP DP  RH WIND       PRES   REMARKS
OHARE          PTCLDY    34  17  50 NW13      30.05R WCI  25
MIDWAY         PTCLDY    34  19  54 NW14      30.06R WCI  25
AURORA         PTCLDY    31  22  69 NW9       30.07R WCI  23
LANSING*       CLEAR     34  22  62 NW14G23   30.05R WCI  24
JOLIET*        CLEAR     34  22  61 NW5       30.08R WCI  30
WAUKEGAN       MOCLDY    32  16  51 NW7G16    30.04R WCI  26
DUPAGE AIRPORT PTCLDY    32  19  58 NW12      30.05R WCI  23
WHEELING       MOCLDY    34  18  52 NW14      30.06R WCI  25
KANKAKEE*      MOCLDY    33  23  67 NW10      30.08R WCI  25
MORRIS*        PTCLDY    32  23  70 NW9       30.07R WCI  24
LEWIS AIRPORT* PTCLDY    33  22  63 NW8       30.07R WCI  26
NORTHERLY ISL    N/A     35  18  50 NW9         N/A  WCI  28
$$

WIZ051-052-058>065-066-070>072-220000-
SOUTHEAST WISCONSIN

CITY           SKY/WX    TMP DP  RH WIND       PRES   REMARKS
MILWAUKEE      MOCLDY    32  14  47 NW14      30.05R WCI  22
KENOSHA*       CLOUDY    32  17  54 NW14G25   30.05R WCI  22
RACINE*        CLOUDY    31  15  52 N14G22    30.06R WCI  21
BURLINGTON     PTCLDY    31  20  63 NW10G21   30.06R WCI  23
WAUKESHA       CLEAR     27  12  54 NW14G20   30.06R WCI  15
WEST BEND      CLEAR     28  14  54 NW10      30.04R WCI  19
$$

INZ001>003-010>013-019-020-220000-
NORTHWEST INDIANA

CITY           SKY/WX    TMP DP  RH WIND       PRES   REMARKS
GARY*          PTCLDY    36  18  48 NW10G30   30.05R
MICHIGAN CITY* NOT AVBL
RENSSELAER*    NOT AVBL
VALPARAISO     CLOUDY    37  26  64 NW13G20   30.03R
$$

LMZ740>746-220000-
SOUTHERN LAKE MICHIGAN

STATION/POSITION TIME  SKY/WX   TEMP WIND        PRES    VSBY
                                AIR  DIR/SP/G
                 (UTC)          (F)  (DEG/KT/KT) (MB)    (MI)
HARRISON CRIB    2240            35  310/ 23/ 24   N/A
BURNHAM HARBOR   2300            35  280/  9/ 18   N/A
CALUMET HARBOR   2242            34  310/ 13/ 17 1016.8R
BURNS HARBOR     2140            39  340/ 23/ 27 1014.9
MICHIGAN CITY    2240            36  300/ 24/ 27   N/A
$$

ABBREVIATIONS USED IN REMARKS
   TC - TEMPERATURE IN CELSIUS
  WCI - WIND CHILL INDEX
   HX - HEAT INDEX
  VSB - VISIBILITY
$$




USA.gov is the U.S. government's official web portal to all federal, state and local government web resources and services.